When you browse on this site, cookies collect data to enhance your experience and personalize the content and advertising you see.
Visit our Privacy Policy to learn more. By continuing to use the site, you agree to this use of cookies and data.
  • In Hungary
  • List of Countries
  • For 7 days
  • Water Temperature
  • Satellite Maps
  • Weather Map
  • News
  • Weather Widgets
  • user-avatar
    Login

    Hourly Weather Acireale

    Today, 13 December, Thursday

    Time Temperature Precipitation Wind Pressure Humidity
    00:00 +10°C° 0 mm 2 mps 749 mmHg 83%
    01:00 +10°C° 0 mm 2 mps 749 mmHg 83%
    02:00 +10°C° 0 mm 2 mps 749 mmHg 82%
    03:00 +12°C° 0 mm 2 mps 748 mmHg 82%
    04:00 +12°C° 0 mm 2 mps 748 mmHg 81%
    05:00 +11°C° 0.1 mm 3 mps 748 mmHg 83%
    06:00 +11°C° 0.1 mm 3 mps 748 mmHg 85%
    07:00 +11°C° 0.1 mm 3 mps 748 mmHg 86%
    08:00 +12°C° 0 mm 3 mps 748 mmHg 81%
    09:00 +14°C° 0 mm 4 mps 748 mmHg 76%
    10:00 +15°C° 0 mm 4 mps 748 mmHg 70%
    11:00 +15°C° 0 mm 4 mps 748 mmHg 67%
    12:00 +17°C° 0 mm 4 mps 748 mmHg 64%
    13:00 +18°C° 0 mm 4 mps 747 mmHg 61%
    14:00 +17°C° 0 mm 4 mps 747 mmHg 64%
    15:00 +17°C° 0 mm 4 mps 747 mmHg 67%
    16:00 +15°C° 0 mm 4 mps 747 mmHg 69%
    17:00 +16°C° 0 mm 3 mps 747 mmHg 74%
    18:00 +14°C° 0 mm 3 mps 747 mmHg 79%
    19:00 +13°C° 0 mm 3 mps 747 mmHg 84%
    20:00 +13°C° 0 mm 3 mps 747 mmHg 84%
    21:00 +13°C° 0 mm 3 mps 747 mmHg 84%
    22:00 +12°C° 0 mm 3 mps 747 mmHg 84%
    23:00 +12°C° 0 mm 3 mps 747 mmHg 85%

    Tomorrow, 14 December, Friday

    Time Temperature Precipitation Wind Pressure Humidity
    00:00 +12°C° 0 mm 3 mps 747 mmHg 85%
    01:00 +12°C° 0 mm 3 mps 746 mmHg 86%
    02:00 +12°C° 0 mm 4 mps 746 mmHg 84%
    03:00 +12°C° 0 mm 4 mps 746 mmHg 83%
    04:00 +12°C° 0 mm 4 mps 745 mmHg 82%
    05:00 +11°C° 0 mm 4 mps 745 mmHg 82%
    06:00 +11°C° 0 mm 4 mps 745 mmHg 82%
    07:00 +11°C° 0 mm 4 mps 745 mmHg 83%
    08:00 +13°C° 0 mm 4 mps 745 mmHg 77%
    09:00 +14°C° 0 mm 4 mps 745 mmHg 71%
    10:00 +17°C° 0 mm 4 mps 745 mmHg 65%
    11:00 +17°C° 0 mm 4 mps 744 mmHg 61%
    12:00 +18°C° 0 mm 4 mps 744 mmHg 58%
    13:00 +19°C° 0 mm 5 mps 744 mmHg 55%
    14:00 +18°C° 0 mm 4 mps 743 mmHg 58%
    15:00 +17°C° 0 mm 3 mps 743 mmHg 62%
    16:00 +17°C° 0 mm 3 mps 743 mmHg 65%
    17:00 +16°C° 0 mm 3 mps 743 mmHg 68%
    18:00 +15°C° 0 mm 2 mps 743 mmHg 72%
    19:00 +15°C° 0 mm 2 mps 743 mmHg 75%
    20:00 +15°C° 0.2 mm 2 mps 744 mmHg 76%
    21:00 +14°C° 0.2 mm 2 mps 744 mmHg 77%
    22:00 +14°C° 0.2 mm 2 mps 744 mmHg 79%
    23:00 +14°C° 0.3 mm 2 mps 743 mmHg 79%

    Day after tomorrow, 15 December, Saturday

    Time Temperature Precipitation Wind Pressure Humidity
    00:00 +14°C° 0.3 mm 2 mps 743 mmHg 80%
    01:00 +13°C° 0.3 mm 2 mps 743 mmHg 81%
    02:00 +13°C° 0.2 mm 2 mps 743 mmHg 82%
    03:00 +13°C° 0.2 mm 1 mps 743 mmHg 83%
    04:00 +13°C° 0.2 mm 1 mps 743 mmHg 84%
    05:00 +12°C° 0.3 mm 1 mps 743 mmHg 84%
    06:00 +12°C° 0.3 mm 1 mps 743 mmHg 85%
    07:00 +12°C° 0.3 mm 2 mps 743 mmHg 86%
    08:00 +13°C° 0.1 mm 2 mps 744 mmHg 82%
    09:00 +14°C° 0.1 mm 2 mps 744 mmHg 77%
    10:00 +14°C° 0.1 mm 3 mps 745 mmHg 73%
    11:00 +14°C° 0 mm 3 mps 744 mmHg 70%
    12:00 +16°C° 0 mm 3 mps 744 mmHg 67%
    13:00 +16°C° 0 mm 3 mps 744 mmHg 63%
    14:00 +16°C° 0 mm 3 mps 744 mmHg 65%
    15:00 +14°C° 0 mm 4 mps 744 mmHg 67%
    16:00 +14°C° 0 mm 4 mps 744 mmHg 68%
    17:00 +13°C° 0 mm 4 mps 745 mmHg 71%
    18:00 +12°C° 0 mm 3 mps 745 mmHg 74%
    19:00 +12°C° 0 mm 3 mps 746 mmHg 77%
    20:00 +11°C° 0 mm 3 mps 746 mmHg 77%
    21:00 +11°C° 0 mm 3 mps 747 mmHg 78%
    22:00 +11°C° 0 mm 3 mps 747 mmHg 78%
    23:00 +11°C° 0 mm 3 mps 747 mmHg 80%

    16 December, Sunday

    Time Temperature Precipitation Wind Pressure Humidity
    00:00 +11°C° 0 mm 3 mps 748 mmHg 82%
    01:00 +11°C° 0 mm 3 mps 748 mmHg 83%
    02:00 +11°C° 0 mm 3 mps 748 mmHg 83%
    03:00 +11°C° 0 mm 3 mps 748 mmHg 84%
    04:00 +10°C° 0 mm 3 mps 748 mmHg 84%
    05:00 +10°C° 0 mm 3 mps 749 mmHg 82%
    06:00 +9°C° 0 mm 3 mps 749 mmHg 81%
    07:00 +9°C° 0 mm 3 mps 750 mmHg 80%
    08:00 +10°C° 0 mm 3 mps 750 mmHg 72%
    09:00 +12°C° 0 mm 3 mps 751 mmHg 65%
    10:00 +14°C° 0 mm 2 mps 751 mmHg 58%
    11:00 +15°C° 0 mm 2 mps 751 mmHg 54%
    12:00 +15°C° 0 mm 2 mps 751 mmHg 50%
    13:00 +16°C° 0 mm 2 mps 751 mmHg 46%
    14:00 +16°C° 0 mm 2 mps 751 mmHg 49%
    15:00 +15°C° 0 mm 2 mps 751 mmHg 51%
    16:00 +15°C° 0 mm 2 mps 751 mmHg 53%
    17:00 +14°C° 0 mm 2 mps 751 mmHg 57%
    18:00 +13°C° 0 mm 2 mps 752 mmHg 61%
    19:00 +10°C° 0 mm 2 mps 752 mmHg 65%
    20:00 +10°C° 0 mm 2 mps 752 mmHg 66%
    21:00 +10°C° 0 mm 2 mps 752 mmHg 66%
    22:00 +10°C° 0 mm 2 mps 752 mmHg 67%
    23:00 +10°C° 0 mm 2 mps 752 mmHg 68%

    17 December, Monday

    Time Temperature Precipitation Wind Pressure Humidity
    00:00 +10°C° 0 mm 2 mps 752 mmHg 70%
    01:00 +12°C° 0 mm 2 mps 752 mmHg 71%
    02:00 +12°C° 0 mm 2 mps 752 mmHg 74%
    03:00 +12°C° 0 mm 2 mps 751 mmHg 76%
    04:00 +12°C° 0 mm 2 mps 751 mmHg 79%
    05:00 +11°C° 0 mm 3 mps 751 mmHg 80%
    06:00 +11°C° 0 mm 3 mps 751 mmHg 81%
    07:00 +11°C° 0 mm 3 mps 751 mmHg 82%
    08:00 +13°C° 0 mm 3 mps 751 mmHg 78%
    09:00 +14°C° 0 mm 3 mps 751 mmHg 74%
    10:00 +17°C° 0 mm 4 mps 751 mmHg 70%
    11:00 +17°C° 0 mm 4 mps 751 mmHg 69%
    12:00 +17°C° 0 mm 4 mps 751 mmHg 69%
    13:00 +17°C° 0 mm 4 mps 750 mmHg 68%
    14:00 +17°C° 0 mm 4 mps 750 mmHg 69%
    15:00 +15°C° 0 mm 5 mps 750 mmHg 70%
    16:00 +15°C° 0 mm 5 mps 750 mmHg 71%
    17:00 +14°C° 0 mm 5 mps 751 mmHg 74%
    18:00 +13°C° 0 mm 5 mps 751 mmHg 76%
    19:00 +12°C° 0 mm 4 mps 751 mmHg 79%
    20:00 +11°C° 0 mm 4 mps 752 mmHg 79%
    21:00 +11°C° 0 mm 4 mps 752 mmHg 80%
    22:00 +11°C° 0 mm 4 mps 752 mmHg 81%
    23:00 +11°C° 0 mm 4 mps 752 mmHg 81%

    18 December, Tuesday

    Time Temperature Precipitation Wind Pressure Humidity
    00:00 +10°C° 0 mm 4 mps 752 mmHg 81%
    01:00 +9°C° 0 mm 5 mps 752 mmHg 80%
    02:00 +9°C° 0 mm 5 mps 752 mmHg 78%
    03:00 +9°C° 0 mm 5 mps 751 mmHg 77%
    04:00 +9°C° 0 mm 6 mps 751 mmHg 75%
    05:00 +9°C° 0.1 mm 6 mps 751 mmHg 75%
    06:00 +9°C° 0.1 mm 6 mps 752 mmHg 75%
    07:00 +9°C° 0.1 mm 6 mps 752 mmHg 75%
    08:00 +10°C° 0.1 mm 7 mps 752 mmHg 72%
    09:00 +11°C° 0.1 mm 7 mps 752 mmHg 68%
    10:00 +11°C° 0.1 mm 7 mps 753 mmHg 65%
    11:00 +12°C° 0 mm 7 mps 753 mmHg 63%
    12:00 +12°C° 0 mm 7 mps 753 mmHg 61%
    13:00 +12°C° 0 mm 7 mps 753 mmHg 59%
    14:00 +13°C° 0 mm 6 mps 753 mmHg 60%
    15:00 +11°C° 0 mm 6 mps 753 mmHg 60%
    16:00 +11°C° 0 mm 6 mps 754 mmHg 61%
    17:00 +10°C° 0 mm 6 mps 754 mmHg 64%
    18:00 +9°C° 0 mm 5 mps 755 mmHg 68%
    19:00 +8°C° 0 mm 5 mps 755 mmHg 71%
    20:00 +8°C° 0 mm 4 mps 755 mmHg 72%
    21:00 +8°C° 0 mm 4 mps 756 mmHg 72%
    22:00 +8°C° 0 mm 3 mps 756 mmHg 73%
    23:00 +8°C° 0 mm 3 mps 756 mmHg 73%
    Show more